OneWeb SL0359

operational
NORAD ID: 49285 Int'l Des: 2021-090 Owner: ONEWEBN Country: UK Constellation: oneweb
LEOCIRCULARPOLARONEWEB_TYPE

About OneWeb SL0359

Description loading...

Live Position

Loading 3D Globe...

Upcoming Passes

Altitude History

Altitude vs Time

uPlot chart will show altitude changes over time

Two-Line Element Set

1 49285U 21090G 26035.67861785 -.00000164 00000-0 -43625-3 0 9990
2 49285 87.9218 300.8786 0002178 81.3764 278.7616 13.20772370213043
Epoch: Feb 4, 2026 • Age: 12 hours

Current Status

Altitude 1195.0 km
Velocity 7.25 km/s
Sub-Earth Point -32.21°S, 77.24°W
Launch Date Oct 14, 2021
Age 4.3 years
Type internet

Technical Details

Classification Payload
Mass 148.00 kg
Dry Mass 140.00 kg
Total Mass 148.00 kg
Length 1.30 m
Diameter 1.00 m
Span 5.00 m
Shape Trapezoid+2 pan
Manufacturer ONEWUS
Bus Type ARROW
Phase Status In Orbit
Owner/State ONEWEBN/UK

Large Constellations

Loading constellations...